Location: �clusier
(49.9361°N, 2.7869°E)
Time: 10:38:25
(UTC+00:00)

Cosmos 1452 Rocket - Pass Details

Date: 01 November 2021
Orbit: 767 x 775 km, 74.1° (Epoch: 26 November)

Event Time Altitude Azimuth Distance (km) Brightness Sun altitude
Rises 18:53:37 0° 192° (SSW) 3,235 6.8 -24.2°
Reaches altitude 10° 18:56:00 10° 189° (S) 2,314 6.0 -24.6°
Enters shadow 18:59:35 43° 170° (S) 1,085 4.1 -25.2°
